Hourly Data Report for August 03, 2021

KUGLUKTUK A
NUNAVUT
Current Station Operator: NAVCAN

67°49'00.000" N
115°08'38.000" W
22.60 m
2300903
71938
YCO

Download Data

Hourly Data (August 2021)
Hourly Data Report for August 3, 2021
TIME
LST
Temp Definition
°C
Dew Point Definition
°C
Rel Hum Definition
%
Precip. Amount Definition
mm

Wind Dir Definition
10's deg

Wind Spd Definition
km/h
Visibility Definition
km
Stn Press Definition
kPa
Hmdx Definition


Wind Chill Definition


Weather Definition


00:00 6.8 4.2 83   32 40 16.1 101.08     LegendNANA
01:00 6.2 3.7 84   32 33 16.1 101.14     LegendNANA
02:00 6.4 4.2 86   33 40 16.1 101.19     Drizzle
03:00 6.1 4.1 87   34 50 16.1 101.25     LegendNANA
04:00 5.9 3.6 85   35 37 24.1 101.35     LegendNANA
05:00 5.9 2.7 80   35 39 24.1 101.44     Mostly Cloudy
06:00 6.0 2.8 80   35 37 24.1 101.50     LegendNANA
07:00 6.1 2.5 77   34 31 24.1 101.54     LegendNANA
08:00 6.0 2.3 77   34 40 24.1 101.58     Cloudy
09:00 6.9 2.1 72   33 36 24.1 101.59     LegendNANA
10:00 7.3 2.7 73   33 32 24.1 101.60     LegendNANA
11:00 7.7 2.8 71   31 26 24.1 101.59     Cloudy
12:00 7.1 2.4 72   32 39 24.1 101.64     LegendNANA
13:00 6.1 2.9 80   32 41 24.1 101.70     LegendNANA
14:00 6.4 2.8 78   31 37 24.1 101.74     Cloudy
15:00 6.8 2.8 75   32 39 24.1 101.76     LegendNANA
16:00 7.6 3.0 73   33 31 24.1 101.75     LegendNANA
17:00 7.8 2.8 71   32 29 24.1 101.77     Cloudy
18:00 7.2 1.3 66   33 30 24.1 101.81     LegendNANA
19:00 7.3 1.7 68   32 25 24.1 101.78     LegendNANA
20:00 7.1 2.5 72   32 22 24.1 101.76     Cloudy
21:00 6.6 1.9 72   30 21 24.1 101.73     LegendNANA
22:00 6.8 1.5 69   30 21 24.1 101.72     LegendNANA
23:00 7.4 1.6 66   31 26 24.1 101.70     Cloudy

Notes on Data Quality.

Legend

  • E = Estimated
  • M = Missing
  • NA = Not Available*
  • [empty] = Indicates an unobserved value
Date modified: